{"data":{"norad_id":48113,"intl_designator":"2021-027X","name":"STARLINK-2450","alt_names":[],"object_type":"PAYLOAD","status":"ACTIVE","operator":null,"country":"US","launch_date":"2021-04-07","launch_site_code":"AFETR","launch_vehicle":null,"mission":null,"orbit_class":"UNKNOWN","rcs_meters":null,"size_class":null,"mass_kg":null,"dimensions":null,"purposes":["comms"],"wikipedia_slug":null,"has_3d_model":false,"image_url":null,"decayed_at":null,"tle_current":{"epoch":"2026-05-25T02:04:41.242944Z","epoch_age_seconds":77734,"freshness":"FRESH","line1":"1 48113U 21027X   26145.08658846  .00000900  00000+0  40759-4 0  9999","line2":"2 48113  53.1585 169.9752 0001386  79.5542 280.5616 15.31706282284204","mean_motion":15.31706282,"eccentricity":0.0001386,"inclination_deg":53.1585,"raan_deg":169.9752,"arg_perigee_deg":79.5542,"mean_anomaly_deg":280.5616,"bstar":4.0759e-5,"rev_number":28420,"period_min":94.012802384002,"perigee_km":469.77201721846,"apogee_km":471.67052073062,"semimajor_km":6848.8582689745,"source":"CELESTRAK","updated_at":"2026-05-25T13:38:16.644599Z"}}}